Weather in Saint-Jean-de-Luz

France     43°23′19″N   1°39′30″W
temp.,
°C
wind,
m/s
gust,
m/s
humid.,
%
clouds,
%
prec.,
mm/h
press.,
hPa
HPBL,
m
16 april, fri
fri1623:00+12e48570 0.0 1021611
02:00+9ene68560 0.0 1021554
05:00+8ene44580 0.0 1022472
08:00+7ene44620 0.0 1023501
11:00+7ne34590 0.0 1024529
14:00+9nnw55510 0.0 1023711
17:00+11nnw88473 0.0 10221093
20:00+12n1111554 0.0 1022899
17 april, sat
sat1723:00+12nne1211525 0.0 10241160
02:00+10ne78563 0.0 10241043
05:00+9ene56631 0.0 1024747
08:00+7e34695 0.0 1024492
11:00+8ne34685 0.0 1025573
14:00+9n55617 0.0 1024914
17:00+10nnw666614 0.0 10241042
20:00+11n7770100 0.2 10241051
18 april, sun
sun1823:00+12nne7765100 0.4 10251119
02:00+12nne6756100 0.4 10241358
05:00+12ne565899 0.0 10231209
08:00+10e336670 0.1 1023366
11:00+11e12625 0.0 1024220
14:00+12nnw33591 0.0 1023266
17:00+12n54585 0.0 1021405
20:00+12ne4461100 0.0 1021331
19 april, mon
mon1923:00+12ene3367100 0.0 1021267
02:00+11se2271100 0.0 1020135
05:00+10se2271100 0.0 1018140
08:00+10ese2271100 0.0 1017158
11:00+11ene226698 0.0 1017178
14:00+13nnw2262100 0.0 1016153
17:00+13nw3365100 0.0 1015315
20:00+13wnw4468100 0.0 1016502
20 april, tue
tue2023:00+13w4571100 0.0 1017614
02:00+13wnw5576100 0.0 1016718
05:00+12wnw5576100 0.1 1016723
08:00+12wnw3378100 0.4 1016399
11:00+12w2280100 0.6 1016309
14:00+11wnw3281100 0.8 1016415
17:00+11w3482100 0.1 1015443
20:00+12nw5586100 0.4 1015557